EW8155 Weather Reports


time (UTC)temp
F
wind
direction
speed
knots
gust
knots
rain 1hr
in
rain 24hr
in
rain mn
in
humidity
%
barometer
mb
20260505024521 63 96 6.1 10.4 0.00 0.01 0.01 86 1027.8
20260505023020 63 96 7.0 12.2 0.00 0.01 0.01 86 1027.8
20260505021519 63 105 7.0 12.2 0.00 0.01 0.01 86 1027.9
20260505020017 63 86 4.3 13.0 0.00 0.01 0.01 86 1027.9
20260505014517 63 91 7.8 13.0 0.00 0.01 0.01 86 1028.0
20260505013015 63 99 7.0 11.3 0.00 0.01 0.01 86 1028.1
20260505011514 63 83 7.8 13.0 0.00 0.01 0.01 85 1028.2
20260505010014 63 87 7.0 11.3 0.00 0.01 0.01 84 1028.4
20260505004511 64 114 6.1 11.3 0.00 0.01 0.01 85 1028.4
20260505003007 64 123 8.7 13.0 0.00 0.01 0.01 85 1028.7
20260505001503 62 109 8.7 12.2 0.00 0.01 0.01 86 1029.0
20260505000001 62 114 7.0 13.0 0.00 0.01 0.01 86 1029.1
20260504234601 61 119 6.1 9.6 0.00 0.01 0.01 85 1029.3
20260504233112 61 86 5.2 9.6 0.00 0.01 0.01 85 1029.5
20260504231604 62 127 6.1 10.4 0.00 0.01 0.01 85 1029.6
20260504230059 62 150 4.3 10.4 0.00 0.01 0.01 85 1029.7
20260504224607 62 128 4.3 9.6 0.00 0.01 0.01 85 1029.8
20260504223129 61 109 2.6 7.0 0.00 0.01 0.01 85 1029.9
20260504221555 61 142 5.2 7.8 0.00 0.01 0.01 86 1030.0
20260504220052 60 148 1.7 4.3 0.00 0.01 0.01 85 1029.9
20260504214553 59 149 0.0 0.0 0.00 0.01 0.01 86 1030.0
20260504213101 59 125 0.0 0.0 0.00 0.01 0.01 86 1030.1
20260504211549 59 123 0.0 3.5 0.00 0.01 0.01 86 1030.1
20260504210051 59 149 1.7 5.2 0.00 0.01 0.01 87 1030.1
20260504204550 59 148 1.7 6.1 0.00 0.01 0.01 87 1030.0
20260504203104 58 155 2.6 6.1 0.00 0.01 0.01 88 1030.0
20260504201554 58 146 1.7 6.1 0.00 0.01 0.01 88 1030.0
20260504200047 57 148 1.7 6.1 0.00 0.01 0.01 88 1029.8
20260504194547 57 158 2.6 4.3 0.00 0.01 0.01 88 1029.6
20260504193047 57 147 2.6 4.3 0.00 0.01 0.01 88 1029.6
20260504191554 57 156 3.5 6.1 0.00 0.01 0.01 88 1029.6
20260504190047 57 165 4.3 6.1 0.00 0.01 0.01 88 1029.5
20260504184544 57 139 2.6 5.2 0.00 0.01 0.01 88 1029.5
20260504183042 57 130 0.9 6.1 0.00 0.01 0.01 88 1029.5
20260504181546 57 149 2.6 6.1 0.00 0.01 0.01 88 1029.5
20260504180042 57 155 0.0 2.6 0.00 0.01 0.01 88 1029.5
20260504174543 58 128 0.0 0.0 0.00 0.01 0.01 88 1029.5
20260504173041 58 124 0.0 0.0 0.00 0.01 0.01 88 1029.5
20260504171546 58 123 0.0 1.7 0.00 0.01 0.01 88 1029.5
20260504081544 58 126 2.6 6.1 0.00 0.00 0.00 83 1030.6
20260504044544 61 120 5.2 7.8 0.00 0.00 0.00 76 1029.7
20260504043037 61 106 6.1 8.7 0.00 0.00 0.00 75 1029.7
20260504041535 62 101 4.3 8.7 0.00 0.00 0.00 74 1029.7
20260504040044 63 126 5.2 8.7 0.00 0.00 0.00 73 1029.9
20260504034534 63 119 6.1 9.6 0.00 0.00 0.00 71 1029.9
20260504033033 63 101 6.1 9.6 0.00 0.00 0.00 73 1029.9
20260504031533 63 122 7.0 10.4 0.00 0.00 0.00 72 1029.8
20260504030031 63 103 5.2 11.3 0.00 0.00 0.00 73 1029.9